CAPE
860 1070 1061 1140 1204 1172 1062 903 956 920 821 695 504 200 2 296 794 910 954 957 904 888 919 956 965 934 789 665 618 536 479 424 344 254 297 348 294 370 429 448 470 494 239 200 138 59 38 20 7 5 5 4 4 7 7 12 12 11 8 10 13 18 21 21 20 18 13 7 7 12 16 19 22 24 23 28 37 31 32 36 33 31 35 37 32
979 1080 1124 1092 1078 1120 1118 1074 978 896 819 753 689 536 360 14 22 35 282 352 427 551 643 755 822 789 730 678 638 573 405 377 368 334 280 313 289 292 460 387 443 530 300 240 119 67 37 19 13 9 5 7 8 6 7 4 11 11 8 9 14 19 18 22 22 22 10 10 16 19 18 17 21 24 30 31 44 40 48 37 43 34 44 43 33
1001 1108 1131 1128 1118 1108 1100 1081 1063 992 886 801 673 645 568 469 334 22 90 325 361 447 576 662 736 842 786 690 643 602 486 364 366 358 311 297 274 270 298 497 532 708 411 348 175 85 38 31 23 16 18 9 10 8 6 8 12 10 11 17 15 15 17 16 18 19 19 20 22 25 20 18 26 28 27 27 35 40 35 43 38 48 47 45 44
984 1110 1122 1132 1098 1060 1120 1158 1149 1026 936 922 824 715 667 615 533 466 365 260 273 394 505 548 583 716 760 698 741 570 476 364 359 333 316 258 173 251 251 321 515 607 440 438 235 122 51 43 21 22 26 8 18 8 7 7 13 11 17 14 18 15 12 11 13 19 25 21 26 23 16 17 23 25 29 28 29 33 35 33 32 37 38 48 52
827 1022 1066 1045 1009 981 1030 1072 1085 1072 1078 1098 1060 969 798 712 629 557 517 395 62 314 391 507 523 550 572 620 633 613 384 309 341 318 296 300 289 250 257 248 256 424 440 490 333 272 81 68 52 44 31 9 7 5 9 6 6 9 10 8 7 8 11 17 20 17 26 21 16 10 12 16 20 25 24 31 29 28 32 36 34 33 31 30 58
854 916 987 987 865 798 839 941 1039 1095 1058 1079 1052 1006 910 781 758 691 742 595 534 472 391 145 246 421 445 422 349 198 356 310 269 300 259 232 86 237 231 288 280 234 284 455 296 239 114 151 81 150 82 12 3 6 10 9 8 5 14 8 7 10 17 21 18 19 16 13 12 13 11 10 19 19 18 20 26 30 27 30 31 38 37 41 36
954 923 921 864 790 725 657 754 939 1047 1101 1124 1101 1108 1073 927 866 837 794 726 685 675 636 593 534 428 215 248 339 0 14 279 337 20 141 226 222 196 250 62 160 226 192 176 227 153 107 116 186 181 88 41 12 4 7 8 7 3 6 10 8 14 17 19 16 16 18 12 8 9 8 8 20 16 17 21 23 31 14 33 28 33 25 24 36
1034 1029 1074 1064 993 945 862 788 908 1042 1100 1157 1139 1076 960 882 803 734 654 575 580 605 593 559 529 486 398 277 402 459 394 162 322 316 183 187 233 266 166 120 197 174 218 211 118 88 144 109 193 486 246 88 30 23 24 14 6 9 7 9 8 6 14 15 15 16 15 8 8 12 16 10 18 20 23 24 24 26 20 32 28 31 28 26 28
1145 1202 1166 1184 1130 1077 1021 997 929 924 999 1028 961 837 789 735 666 630 614 595 589 599 603 575 517 503 443 279 289 443 531 442 364 327 233 163 151 187 152 63 139 241 217 203 124 64 242 337 210 569 425 235 98 49 55 39 13 10 10 11 8 12 8 14 14 16 12 6 7 11 12 12 27 27 26 28 17 12 24 26 30 30 24 22 16
1362 1349 1303 1288 1312 1243 1194 1154 1139 1080 1020 957 950 956 947 912 832 788 723 686 671 663 701 724 671 623 568 438 188 115 459 564 486 264 171 149 119 142 193 119 109 127 174 119 110 85 60 255 395 656 470 222 121 92 155 165 32 9 9 13 8 15 13 12 13 10 8 8 6 12 10 16 36 31 28 28 24 22 27 28 27 17 9 8 3
1148 1276 1222 1225 1194 1225 1249 1317 1301 1249 1201 1173 1150 972 833 833 857 922 890 834 798 805 791 745 685 654 618 589 519 314 287 433 562 572 390 213 250 265 201 151 113 105 97 112 48 64 82 67 105 328 300 227 244 208 231 75 45 32 5 10 10 18 17 13 14 13 10 12 14 12 13 21 30 29 35 28 24 21 28 27 16 11 2 0 0
637 859 1009 1190 1326 1431 1481 1444 1373 1249 1207 1178 1147 1106 1070 1018 921 1030 1044 922 774 725 748 758 734 727 704 678 609 519 434 389 416 537 604 490 289 194 292 316 201 128 114 100 76 76 75 100 66 221 284 156 201 312 363 147 123 44 0 5 12 29 22 16 26 20 15 16 13 13 16 31 28 35 37 20 17 20 16 14 12 2 2 0 0
849 977 1102 1092 1143 1274 1336 1376 1257 1122 1136 1215 1236 1116 937 1001 1064 1077 982 876 777 703 691 659 639 600 529 366 380 499 457 415 415 351 391 463 415 335 290 277 227 179 179 112 68 66 84 119 92 151 363 122 100 193 334 246 198 83 29 6 28 63 64 52 70 46 22 39 18 14 13 30 23 31 26 23 15 17 11 4 2 1 1 0 0
847 950 969 1002 1021 1157 1239 1248 1184 1098 984 988 953 887 858 858 854 939 924 864 821 722 698 696 675 559 472 460 341 0 0 0 0 385 355 331 276 276 331 358 296 222 217 154 78 41 97 154 108 117 292 265 112 58 189 196 58 143 258 17 12 76 52 84 94 98 56 35 15 21 13 28 20 20 21 27 20 11 4 2 2 1 0 0 0
846 748 696 656 742 925 1116 1222 1243 1253 1207 1056 970 882 834 851 868 825 809 777 754 716 762 697 717 637 602 453 19 11 0 0 0 0 216 346 362 357 349 368 386 311 253 255 151 40 91 166 136 122 212 293 200 122 104 118 61 91 95 34 29 84 117 30 114 63 75 71 22 16 15 29 24 20 20 14 5 2 0 0 0 0 0 0 0
760 783 858 856 870 925 974 1015 1048 1114 1141 1130 1017 985 820 728 744 688 684 681 683 792 740 824 692 666 575 511 411 245 96 0 0 0 0 0 0 35 280 365 434 415 302 264 88 54 81 206 140 148 181 228 244 194 105 147 114 99 50 38 102 64 156 55 246 295 163 33 15 15 13 28 32 23 18 7 1 0 0 0 0 0 0 1 1
701 678 751 787 830 859 903 946 952 934 882 825 764 735 710 716 734 719 693 610 629 661 648 657 766 764 599 471 376 297 290 126 88 0 0 0 0 186 254 348 413 448 418 300 194 50 77 194 222 197 180 178 156 184 172 123 139 220 139 190 293 128 179 143 19 86 359 67 24 19 19 40 32 31 16 6 0 0 0 0 0 0 0 1 2
601 604 610 648 691 735 760 799 850 818 805 765 756 778 816 802 794 749 690 626 584 631 598 475 502 491 599 597 238 396 495 211 91 180 0 1 25 12 106 227 311 376 380 318 149 176 156 174 262 271 235 186 157 121 110 110 141 157 207 150 68 228 136 120 49 432 492 19 79 59 42 35 44 29 9 2 1 0 0 0 0 0 0 1 4
532 561 589 617 647 669 701 764 829 849 865 862 855 796 719 684 644 690 720 678 638 661 551 465 332 278 291 190 415 510 568 378 278 178 190 40 0 100 64 87 211 258 295 277 186 98 245 307 302 307 316 324 273 216 122 78 117 157 160 241 156 112 62 23 141 258 133 142 204 123 45 109 60 17 5 2 1 0 0 0 0 0 1 1 4
515 525 534 569 606 644 640 664 730 794 811 850 812 760 701 693 645 641 645 619 557 474 444 408 326 267 164 251 280 324 352 306 209 201 146 181 181 58 176 165 155 210 246 265 195 174 249 341 411 345 372 452 468 404 266 94 68 112 160 172 199 168 66 16 26 46 106 396 485 219 78 77 92 19 1 1 0 0 0 0 0 1 1 2 1
475 473 462 448 498 555 556 567 544 623 753 822 829 744 702 688 716 744 748 704 631 588 515 462 349 258 152 115 108 159 171 170 186 130 150 100 94 160 130 68 150 215 344 387 377 277 228 303 380 441 507 558 540 475 414 244 72 50 99 174 207 200 150 117 88 8 5 289 213 57 186 153 82 32 4 1 0 0 0 0 0 2 1 2 4
358 407 402 390 436 513 548 554 546 500 490 555 575 600 667 690 687 680 721 727 690 617 562 439 302 208 145 121 121 100 61 79 62 118 109 87 83 23 85 93 26 104 263 441 468 376 288 323 381 469 517 549 539 500 467 481 230 81 84 140 204 243 234 105 168 33 0 36 78 55 81 245 163 100 12 1 1 0 0 0 1 2 2 4 4
54 300 281 374 491 540 571 553 501 440 425 358 236 323 441 516 515 492 502 541 573 591 530 416 270 194 155 121 116 140 120 110 134 110 121 120 121 55 81 99 45 105 91 182 446 439 335 335 427 499 529 501 389 346 373 481 558 426 382 365 209 250 283 193 181 171 47 163 21 17 77 253 244 91 8 3 3 1 0 0 1 2 5 5 4
114 59 0 177 403 420 400 379 343 188 4 5 6 39 133 221 300 361 402 422 469 514 509 405 270 206 193 169 162 156 156 150 138 110 110 102 131 60 74 129 95 51 45 0 54 242 324 293 372 393 403 362 290 274 262 403 616 415 292 378 398 260 304 265 205 171 20 144 199 86 110 134 107 135 18 5 3 3 1 0 1 2 3 4 6
0 3 62 0 18 20 18 16 0 22 2 4 7 10 19 74 130 204 310 377 383 392 362 308 239 197 183 182 165 131 120 122 111 91 108 191 168 124 96 16 108 130 117 97 109 36 219 366 316 226 153 168 164 108 163 250 251 108 126 266 389 304 255 294 232 202 52 135 216 40 88 146 150 206 58 4 2 3 1 0 1 1 2 5 3
4 5 3 2 2 1 1 1 1 3 6 0 1 2 4 11 58 102 140 222 276 302 301 276 249 214 181 185 184 167 184 185 149 124 83 68 61 78 82 46 64 161 153 206 199 169 148 204 339 292 245 172 139 89 91 154 120 53 142 267 388 327 203 273 255 245 183 176 215 152 5 93 85 161 57 12 2 2 2 0 0 0 0 0 2
3 4 3 3 3 2 1 1 0 0 0 0 0 0 1 4 4 32 143 185 245 306 311 302 300 290 266 232 219 236 219 206 163 169 174 153 145 156 206 138 160 191 170 148 219 188 266 252 205 259 264 210 171 109 64 115 152 136 229 318 440 362 243 247 278 249 268 236 226 108 163 4 27 129 27 7 0 0 0 0 0 0 0 2 2
2 2 2 0 1 2 2 1 1 0 0 0 0 0 1 2 4 3 7 25 106 172 180 150 124 108 103 108 105 136 154 145 158 192 219 240 223 194 139 129 125 119 31 13 104 156 189 189 195 218 232 274 300 251 180 173 148 175 298 412 474 377 359 293 266 267 268 267 254 200 184 40 28 150 35 0 0 0 0 0 0 0 0 1 1
3 2 3 2 3 4 2 2 1 0 0 0 0 0 0 2 1 2 4 4 6 9 46 131 152 157 174 148 148 140 142 128 133 142 162 191 198 160 113 126 136 89 12 0 15 130 201 170 221 212 295 378 388 357 224 233 163 176 317 373 416 420 443 393 314 284 286 285 265 153 125 0 45 128 57 13 0 0 0 0 0 0 0 0 0
4 4 6 5 4 2 2 2 1 0 0 0 0 0 0 0 0 1 3 4 4 5 7 22 152 211 198 193 174 192 152 119 108 134 174 209 197 182 170 182 167 77 2 39 32 10 73 157 166 233 204 309 409 387 331 244 148 99 173 238 294 413 467 464 395 328 288 251 0 0 0 0 37 124 72 28 8 0 0 0 0 0 0 0 1
4 5 4 3 2 4 4 2 0 0 0 0 0 0 0 2 2 0 1 2 2 5 9 8 10 92 158 191 185 164 157 150 146 133 138 148 159 148 182 235 238 138 80 56 86 5 33 36 85 204 284 259 339 347 319 218 117 81 101 84 122 341 417 417 398 324 268 52 0 0 0 0 12 109 77 35 16 0 0 0 0 0 0 0 0
1 2 1 3 4 4 2 2 0 0 0 0 0 0 0 0 0 0 0 1 1 2 5 7 10 12 52 143 183 171 160 164 155 140 153 148 206 236 174 153 231 236 204 145 115 35 19 11 108 242 277 340 338 348 344 236 114 107 89 37 130 293 347 254 303 289 208 0 0 0 0 0 64 83 13 37 21 5 0 0 0 0 0 0 0
0 0 0 0 1 1 0 0 0 0 0 0 0 0 0 0 0 0 0 0 1 1 5 7 7 8 6 15 119 195 189 169 168 176 190 147 181 210 152 194 276 285 180 117 90 12 15 32 86 191 236 282 308 353 404 282 138 110 92 38 82 212 290 151 216 185 0 0 0 0 0 0 27 45 27 35 20 5 0 0 0 0 0 0 0
0 0 0 0 2 0 0 0 0 0 0 0 0 0 0 0 0 2 1 1 1 1 1 5 7 13 4 5 9 94 126 113 148 124 182 147 102 134 262 284 242 197 158 119 94 12 21 30 39 102 204 225 310 313 371 296 135 113 35 98 72 119 226 136 137 32 131 0 0 0 0 0 35 2 44 35 16 2 0 0 0 0 0 0 0
0 0 0 0 1 0 0 0 0 0 0 0 0 0 0 0 1 0 0 0 0 0 0 2 4 6 12 4 13 8 18 28 19 44 125 142 120 220 323 360 254 214 166 136 116 105 26 52 58 63 133 244 238 287 293 262 174 133 78 26 89 77 114 82 0 0 0 219 210 0 0 0 0 0 37 33 9 0 0 0 0 0 0 0 0
0 0 0 0 0 0 0 0 0 0 0 0 0 0 0 0 0 0 0 0 0 0 0 1 3 7 47 83 56 6 28 25 48 21 62 103 146 125 212 349 371 348 295 212 190 162 8 108 100 89 68 156 189 228 237 232 176 152 114 50 77 67 98 41 0 0 0 200 107 0 0 0 0 0 0 6 11 0 0 0 0 0 0 0 0
0 0 0 0 0 0 0 0 0 0 0 0 0 0 0 0 0 0 0 0 0 0 0 0 2 5 29 85 110 6 14 29 9 80 68 26 23 30 57 255 389 390 353 295 262 193 132 146 129 140 96 70 89 148 173 207 180 154 116 16 30 0 0 34 0 0 0 182 192 0 0 0 0 0 0 7 13 0 0 0 0 0 0 0 0
0 0 0 0 0 0 0 0 0 0 0 0 0 0 0 0 0 0 0 0 0 0 0 0 2 12 11 28 83 17 20 44 125 172 177 183 64 44 52 278 354 346 304 270 104 205 142 115 95 130 110 91 79 82 99 156 202 191 160 127 84 0 0 59 0 0 0 104 94 93 77 73 0 0 0 0 0 0 0 0 0 0 0 0 0
0 0 0 0 0 0 0 0 0 0 0 0 0 0 0 0 0 0 0 0 1 5 6 8 5 7 10 10 36 47 68 114 122 126 74 136 130 149 41 195 225 250 278 239 168 123 112 142 117 96 96 99 3 33 38 137 183 181 189 111 1 0 54 0 0 0 0 22 58 29 62 31 0 0 0 0 0 0 0 0 0 0 0 0 0
0 0 0 0 0 0 0 0 0 0 0 0 0 0 0 0 0 0 0 0 3 4 4 2 6 7 9 8 41 106 116 119 105 132 164 162 154 66 177 187 164 186 228 233 209 139 98 141 122 104 47 30 90 29 121 114 83 138 121 70 95 0 0 0 30 16 0 0 0 1 3 0 0 0 0 0 0 0 0 0 0 0 0 0 0
0 0 0 0 0 0 0 0 0 0 0 0 0 1 0 0 0 0 0 0 4 4 4 3 2 2 4 5 25 158 184 129 120 110 118 118 109 110 122 146 141 181 180 169 116 69 98 75 61 68 56 78 119 164 104 22 0 0 0 126 30 0 0 0 0 0 0 0 0 0 0 0 0 0 0 0 0 0 0 0 0 0 0 0 0
0 0 0 0 0 0 0 0 0 0 0 0 0 0 0 1 0 0 0 0 0 0 3 1 1 1 1 3 6 9 12 43 78 96 132 145 142 107 127 129 126 123 147 126 85 81 121 142 73 43 21 18 53 111 90 0 5 0 94 130 89 78 0 0 1 0 0 0 0 0 0 0 0 0 0 0 0 0 0 0 0 0 0 0 0
0 0 0 0 0 0 0 0 0 0 0 0 0 0 0 0 0 0 0 0 0 0 0 1 1 1 1 1 2 5 4 5 22 81 113 68 81 134 156 172 137 112 112 111 139 145 176 167 119 79 24 0 0 28 74 0 0 0 0 0 0 6 0 1 24 0 2 0 0 0 0 0 0 0 0 0 0 0 0 0 0 0 0 0 0
0 0 0 0 0 0 0 0 0 0 0 0 0 0 0 0 0 0 0 0 0 0 0 0 1 1 1 1 3 6 5 6 6 21 48 54 52 62 89 111 111 140 138 126 137 171 168 161 154 75 0 0 0 0 0 4 0 1 0 0 0 0 10 24 0 0 0 0 0 0 0 0 0 0 0 0 0 0 0 0 0 0 0 0 0
0 0 0 0 0 0 0 0 0 0 0 0 0 0 0 0 0 0 0 0 2 0 0 0 1 1 1 2 3 2 2 6 8 3 19 43 45 35 41 65 88 96 127 146 139 139 160 164 183 108 46 102 151 0 0 0 0 0 0 36 0 0 71 2 0 0 0 0 0 0 0 0 0 0 0 0 0 0 0 0 0 0 0 0 0
0 0 0 0 0 0 0 0 0 0 0 0 0 0 0 0 0 0 0 0 0 1 1 0 1 1 1 3 4 4 2 3 4 2 4 31 52 54 37 51 86 148 153 146 157 166 146 119 133 121 112 88 0 64 108 85 117 79 0 0 2 0 0 0 4 0 0 0 0 0 0 0 0 0 0 0 0 0 0 0 0 0 0 0 0
0 0 0 0 0 0 0 0 0 0 0 0 0 0 0 0 0 0 0 0 0 0 1 1 0 0 1 3 4 4 3 2 3 4 5 3 35 54 34 26 54 113 155 185 202 193 146 124 110 101 111 120 131 103 117 122 120 134 42 0 0 1 0 0 4 0 4 1 0 0 0 0 0 0 0 0 0 0 0 0 0 0 0 0 0
0 0 0 0 0 0 0 0 0 0 0 0 0 0 0 0 0 0 0 0 0 0 0 1 1 1 1 2 2 2 2 1 2 4 8 9 10 38 24 2 11 28 43 67 90 148 182 155 122 115 124 113 130 168 132 43 33 94 111 115 0 14 107 93 0 0 1 0 0 0 0 0 0 0 0 0 0 0 0 0 0 0 0 0 0
0 0 0 0 0 0 0 0 0 0 0 0 0 0 0 0 0 0 0 0 1 1 0 1 1 1 2 2 3 2 1 1 1 0 4 10 10 5 18 4 7 22 50 73 74 92 156 207 191 166 143 131 149 157 151 133 123 44 23 20 25 42 11 3 0 0 0 0 0 0 0 0 0 0 0 0 0 0 0 0 0 0 0 0 0
0 0 0 0 0 0 0 0 0 0 0 0 0 0 0 0 0 0 0 1 1 1 1 1 0 0 2 6 9 2 0 2 0 0 0 2 10 15 5 32 29 23 47 89 107 104 99 156 243 236 196 153 145 168 184 141 84 60 76 29 5 6 23 0 54 0 0 0 0 0 0 0 0 0 0 0 0 0 0 0 0 0 0 0 0
0 0 0 0 0 0 0 0 0 0 0 0 0 0 0 0 0 0 0 0 1 1 1 0 0 0 0 3 4 3 3 0 0 0 1 2 3 20 25 11 41 29 26 37 41 78 89 95 148 199 260 243 211 203 220 194 175 151 114 33 117 4 0 0 0 0 0 0 0 4 0 0 0 0 0 0 0 0 0 0 0 0 0 0 0
Wind_Speed
2 3 5 6 5 4 4 5 7 7 8 7 8 8 nan 7 6 6 9 11 12 11 12 12 12 11 10 11 12 13 14 16 16 15 15 14 14 14 18 19 21 21 21 20 20 nan nan nan nan nan nan nan nan nan nan nan nan nan nan nan nan nan nan nan nan nan nan nan nan nan nan nan nan nan nan nan nan nan nan nan nan nan nan nan nan
3 4 7 7 5 3 2 2 4 6 6 6 5 6 7 nan nan nan 9 11 12 13 16 15 13 13 12 10 12 12 14 16 17 17 16 16 15 14 16 19 20 20 21 21 20 nan nan nan nan nan nan nan nan nan nan nan nan nan nan nan nan nan nan nan nan nan nan nan nan nan nan nan nan nan nan nan nan nan nan nan nan nan nan nan nan
5 6 8 9 7 4 2 3 3 4 5 4 4 5 5 5 5 nan nan 8 9 11 14 14 14 13 14 12 12 14 14 16 18 18 17 16 16 16 15 17 17 19 21 20 21 nan nan nan nan nan nan nan nan nan nan nan nan nan nan nan nan nan nan nan nan nan nan nan nan nan nan nan nan nan nan nan nan nan nan nan nan nan nan nan nan
8 9 10 10 8 6 4 4 3 3 4 4 4 4 5 5 6 7 9 10 10 11 12 14 14 14 14 13 15 17 17 17 17 18 18 17 17 17 16 16 16 19 21 21 20 19 nan nan nan nan nan nan nan nan nan nan nan nan nan nan nan nan nan nan nan nan nan nan nan nan nan nan nan nan nan nan nan nan nan nan nan nan nan nan nan
9 9 9 10 9 8 7 7 7 6 6 5 7 7 6 6 6 8 8 10 nan 12 14 15 14 13 16 17 16 16 19 19 17 17 17 17 17 18 18 17 17 19 21 21 20 17 nan nan nan nan nan nan nan nan nan nan nan nan nan nan nan nan nan nan nan nan nan nan nan nan nan nan nan nan nan nan nan nan nan nan nan nan nan nan nan
8 8 9 10 10 9 9 9 10 10 10 10 9 9 8 7 8 9 9 12 12 13 14 13 14 15 16 19 17 16 17 18 18 18 18 19 nan 17 16 17 19 17 17 21 20 17 17 17 nan 19 nan nan nan nan nan nan nan nan nan nan nan nan nan nan nan nan nan nan nan nan nan nan nan nan nan nan nan nan nan nan nan nan nan nan nan
9 9 9 10 9 9 9 11 12 13 13 12 12 11 12 10 11 12 12 12 13 12 13 12 13 13 15 18 19 nan nan 19 22 nan 20 20 18 21 18 nan 15 17 17 18 20 18 17 14 15 18 nan nan nan nan nan nan nan nan nan nan nan nan nan nan nan nan nan nan nan nan nan nan nan nan nan nan nan nan nan nan nan nan nan nan nan
10 11 11 11 11 11 11 12 14 14 14 14 14 13 13 13 13 15 14 13 15 14 15 13 13 12 14 16 17 18 21 22 22 23 24 23 21 18 19 22 17 16 17 18 20 nan 17 15 15 16 18 nan nan nan nan nan nan nan nan nan nan nan nan nan nan nan nan nan nan nan nan nan nan nan nan nan nan nan nan nan nan nan nan nan nan
11 11 13 13 14 13 12 13 13 13 13 13 13 13 14 13 13 15 16 15 15 14 13 13 13 13 14 16 18 21 23 22 20 22 24 25 25 24 22 nan 23 18 17 18 18 nan 14 16 16 14 19 20 nan nan nan nan nan nan nan nan nan nan nan nan nan nan nan nan nan nan nan nan nan nan nan nan nan nan nan nan nan nan nan nan nan
12 13 13 14 14 14 13 12 13 14 14 15 13 14 14 14 13 14 15 17 16 16 14 13 14 14 15 16 19 20 22 26 21 21 23 24 25 25 24 24 24 23 20 16 16 nan nan 14 15 14 19 21 19 nan 16 18 nan nan nan nan nan nan nan nan nan nan nan nan nan nan nan nan nan nan nan nan nan nan nan nan nan nan nan nan nan
14 14 15 15 15 14 14 13 14 15 16 16 15 16 16 15 14 13 16 16 16 18 18 17 16 15 15 15 18 20 21 23 24 23 24 23 25 25 25 23 23 22 nan 20 nan nan nan nan 16 16 18 22 18 15 14 nan nan nan nan nan nan nan nan nan nan nan nan nan nan nan nan nan nan nan nan nan nan nan nan nan nan nan nan nan nan
16 16 16 16 16 15 14 13 17 18 15 16 16 16 17 16 16 15 16 17 18 17 17 17 18 18 18 18 18 20 22 22 24 25 24 23 25 26 24 23 23 23 21 21 nan nan nan nan nan 17 18 20 19 15 13 14 14 nan nan nan nan nan nan nan nan nan nan nan nan nan nan nan nan nan nan nan nan nan nan nan nan nan nan nan nan
17 18 19 17 17 17 16 14 18 18 15 14 15 14 14 15 15 17 16 16 19 21 18 18 16 17 19 18 19 21 22 23 23 24 25 25 25 26 25 24 23 23 22 24 nan nan nan 20 nan 18 19 21 19 16 14 12 13 nan nan nan nan nan nan nan nan nan nan nan nan nan nan nan nan nan nan nan nan nan nan nan nan nan nan nan nan
18 18 18 18 17 18 19 19 18 19 18 17 16 15 16 17 18 16 18 16 18 24 23 24 20 18 16 17 19 nan nan nan nan 25 27 27 27 26 25 24 24 23 24 25 nan nan nan 24 22 20 20 21 21 nan 16 15 nan 11 14 nan nan nan nan nan nan nan nan nan nan nan nan nan nan nan nan nan nan nan nan nan nan nan nan nan nan
18 18 18 18 19 19 21 23 21 19 20 20 19 17 18 17 17 17 16 19 18 22 25 26 19 22 22 21 nan nan nan nan nan nan 26 27 28 27 26 25 24 25 25 23 23 nan nan 26 23 21 20 22 22 20 18 17 nan nan nan nan nan nan 17 nan 17 nan nan nan nan nan nan nan nan nan nan nan nan nan nan nan nan nan nan nan nan
19 19 19 19 19 19 21 24 23 24 23 22 22 20 21 20 21 20 20 16 18 20 24 25 24 23 20 24 22 25 nan nan nan nan nan nan nan nan 27 26 25 27 28 25 nan nan nan 27 23 21 20 22 23 22 19 19 16 nan nan nan 14 nan 16 nan 17 16 17 nan nan nan nan nan nan nan nan nan nan nan nan nan nan nan nan nan nan
20 20 20 19 19 18 20 22 24 25 26 24 22 21 22 22 22 21 22 21 17 19 23 25 24 26 23 22 22 23 22 23 nan nan nan nan nan 27 26 26 27 28 29 27 26 nan nan 26 24 23 22 23 23 23 21 19 18 17 14 12 12 12 12 13 nan nan 18 nan nan nan nan nan nan nan nan nan nan nan nan nan nan nan nan nan nan
23 22 21 20 20 19 20 23 25 25 25 25 23 23 23 23 23 22 21 22 19 17 17 23 23 22 23 25 23 19 19 26 nan 25 nan nan nan nan 28 27 28 28 28 29 28 28 30 27 26 25 24 24 24 23 21 20 20 19 19 17 nan 10 11 12 nan 14 16 nan nan nan nan nan nan nan nan nan nan nan nan nan nan nan nan nan nan
23 23 23 22 21 21 22 24 25 26 27 27 25 24 23 23 23 23 22 21 22 18 17 18 22 23 23 23 22 21 22 26 25 26 26 nan nan nan nan nan 29 28 28 29 28 nan 31 31 28 26 25 25 25 24 22 nan 18 17 17 18 15 10 nan nan 11 11 12 18 20 20 nan 17 nan nan nan nan nan nan nan nan nan nan nan nan nan
23 23 24 24 24 23 23 24 25 25 27 27 26 24 24 24 24 22 20 21 21 19 17 20 21 21 26 23 23 23 22 23 25 26 27 26 31 nan 31 29 29 28 28 30 30 28 30 32 32 29 26 25 25 25 23 nan nan 19 19 18 15 12 nan nan nan nan 10 15 17 19 nan nan nan nan nan nan nan nan nan nan nan nan nan nan nan
23 23 24 24 25 24 24 24 24 24 27 27 26 25 23 22 21 20 20 20 22 21 20 20 22 20 21 24 23 23 24 25 25 30 30 28 nan 32 32 nan 30 28 28 30 32 30 29 30 32 30 26 24 25 25 24 23 nan nan nan 17 15 13 11 12 nan nan nan 13 14 nan 18 17 nan nan nan nan nan nan nan nan nan nan nan nan nan
24 25 25 24 24 25 25 25 25 25 25 25 25 24 23 22 22 21 20 20 22 23 21 20 21 21 23 23 23 24 nan nan nan 31 32 nan nan nan nan nan nan 28 28 29 31 32 29 28 30 27 24 25 25 25 24 23 22 nan nan 17 15 13 12 13 16 nan nan nan nan nan nan 19 17 17 nan nan nan nan nan nan nan nan nan nan nan
nan 25 26 25 25 26 26 26 27 27 26 26 25 23 23 23 23 21 21 20 22 22 21 22 22 23 23 26 25 25 25 26 28 32 33 33 32 nan nan nan nan 29 nan 26 30 32 30 26 28 25 23 25 26 24 23 22 21 20 19 18 16 14 14 15 18 20 nan 21 nan nan nan 18 18 nan nan nan nan nan nan nan nan nan nan nan nan
25 nan nan 27 27 27 28 28 28 26 nan nan nan nan 24 23 22 22 23 22 21 22 22 22 23 24 24 26 26 27 28 29 30 32 33 34 35 nan nan 31 nan nan nan nan nan 30 29 25 26 25 22 25 26 24 22 22 22 19 20 18 17 15 15 16 20 22 nan 22 22 nan 14 14 16 20 nan nan nan nan nan nan nan nan nan nan nan
nan nan nan nan nan nan nan nan nan nan nan nan nan nan nan nan 23 22 23 23 24 23 23 22 22 22 23 25 26 27 28 30 31 nan 33 34 36 31 nan nan 30 31 31 nan 29 nan 29 26 27 27 24 25 26 25 23 22 22 21 21 20 18 17 17 17 20 22 nan 21 19 nan nan 15 14 19 nan nan nan nan nan nan nan nan nan nan nan
nan nan nan nan nan nan nan nan nan nan nan nan nan nan nan nan nan 23 23 24 24 22 21 21 21 22 25 25 26 27 29 31 32 32 nan nan nan nan nan nan nan 30 34 31 32 31 28 26 29 29 27 27 27 nan nan 23 23 nan 23 23 20 19 19 19 19 21 20 19 18 17 nan nan nan 17 nan nan nan nan nan nan nan nan nan nan nan
nan nan nan nan nan nan nan nan nan nan nan nan nan nan nan nan nan nan 25 26 25 23 24 23 22 23 24 25 26 27 28 30 31 33 34 35 34 32 30 29 34 33 33 31 33 27 28 29 29 27 26 28 26 25 nan 26 25 25 25 26 26 22 22 20 19 20 19 19 18 17 17 nan nan 17 nan nan nan nan nan nan nan nan nan nan nan
nan nan nan nan nan nan nan nan nan nan nan nan nan nan nan nan nan nan nan nan 25 22 24 24 24 23 24 25 26 27 28 29 31 32 33 34 33 31 31 30 30 32 nan nan 30 26 29 30 29 26 27 30 29 28 28 30 29 27 28 29 28 26 22 20 19 20 19 18 18 17 17 nan nan 19 nan nan nan nan nan nan nan nan nan nan nan
nan nan nan nan nan nan nan nan nan nan nan nan nan nan nan nan nan nan nan nan nan nan nan 25 25 25 27 27 28 27 28 29 29 31 32 32 30 29 30 30 31 nan nan nan nan 28 29 28 30 29 30 32 33 33 33 32 29 28 29 29 28 28 22 20 20 20 20 18 18 17 17 nan nan 22 nan nan nan nan nan nan nan nan nan nan nan
nan nan nan nan nan nan nan nan nan nan nan nan nan nan nan nan nan nan nan nan nan nan nan nan 25 26 25 26 28 29 30 30 30 33 32 30 29 28 29 30 31 nan nan nan nan nan nan 28 29 34 34 33 35 35 34 31 28 nan 28 29 29 28 24 21 21 20 20 19 nan nan nan nan nan 22 nan nan nan nan nan nan nan nan nan nan nan
nan nan nan nan nan nan nan nan nan nan nan nan nan nan nan nan nan nan nan nan nan nan nan nan nan nan 25 25 26 28 29 29 30 32 30 28 27 27 28 30 30 29 nan nan nan nan nan nan nan 32 36 36 37 36 33 31 29 nan 29 nan 29 27 25 22 21 20 20 nan nan nan nan nan nan 23 nan nan nan nan nan nan nan nan nan nan nan
nan nan nan nan nan nan nan nan nan nan nan nan nan nan nan nan nan nan nan nan nan nan nan nan nan nan nan 24 25 27 28 29 29 31 29 27 26 27 28 29 29 30 30 30 25 nan nan nan 28 28 32 35 35 33 31 32 32 28 nan nan 29 28 26 24 21 21 20 nan nan nan nan nan nan nan nan nan nan nan nan nan nan nan nan nan nan
nan nan nan nan nan nan nan nan nan nan nan nan nan nan nan nan nan nan nan nan nan nan nan nan nan nan nan nan 23 26 26 25 28 30 29 26 27 28 28 29 29 30 29 29 nan nan nan nan nan 25 27 30 30 29 31 33 34 32 nan nan nan 28 25 26 25 21 nan nan nan nan nan nan nan nan nan nan nan nan nan nan nan nan nan nan nan
nan nan nan nan nan nan nan nan nan nan nan nan nan nan nan nan nan nan nan nan nan nan nan nan nan nan nan nan nan nan 27 26 26 27 26 25 26 26 27 29 29 29 30 30 nan nan nan nan nan 27 26 23 23 25 26 27 28 31 nan nan nan 26 25 27 28 nan 21 nan nan nan nan nan nan nan nan nan nan nan nan nan nan nan nan nan nan
nan nan nan nan nan nan nan nan nan nan nan nan nan nan nan nan nan nan nan nan nan nan nan nan nan nan nan nan nan nan nan nan nan nan 24 23 24 25 26 29 29 29 31 30 30 26 nan nan nan nan 23 22 21 20 19 22 26 27 nan nan nan nan 27 nan nan nan nan 22 23 nan nan nan nan nan nan nan nan nan nan nan nan nan nan nan nan
nan nan nan nan nan nan nan nan nan nan nan nan nan nan nan nan nan nan nan nan nan nan nan nan nan nan nan nan nan nan nan nan nan nan nan 23 23 24 26 28 28 30 33 33 30 28 nan 28 29 nan nan 23 22 24 22 26 27 27 25 nan nan nan nan nan nan nan nan 23 23 nan nan nan nan nan nan nan nan nan nan nan nan nan nan nan nan
nan nan nan nan nan nan nan nan nan nan nan nan nan nan nan nan nan nan nan nan nan nan nan nan nan nan nan nan 23 nan nan nan nan nan nan nan nan nan nan 28 28 29 34 33 30 32 34 29 27 28 nan nan nan 26 26 27 29 29 26 nan nan nan nan nan nan nan nan 25 25 nan nan nan nan nan nan nan nan nan nan nan nan nan nan nan nan
nan nan nan nan nan nan nan nan nan nan nan nan nan nan nan nan nan nan nan nan nan nan nan nan nan nan nan nan nan nan nan nan 23 23 23 21 nan nan nan 27 27 30 32 34 33 32 30 28 nan 29 29 nan nan nan nan 28 31 30 28 29 nan nan nan nan nan nan nan 31 nan nan nan nan nan nan nan nan nan nan nan nan nan nan nan nan nan
nan nan nan nan nan nan nan nan nan nan nan nan nan nan nan nan nan nan nan nan nan nan nan nan nan nan nan nan nan nan nan 29 27 23 nan 19 22 23 nan 26 27 28 30 30 30 31 31 29 29 nan nan nan nan nan nan 30 31 30 28 30 nan nan nan nan nan nan nan nan nan nan nan nan nan nan nan nan nan nan nan nan nan nan nan nan nan
nan nan nan nan nan nan nan nan nan nan nan nan nan nan nan nan nan nan nan nan nan nan nan nan nan nan nan nan nan 30 30 29 28 27 28 24 20 nan 25 26 27 28 29 31 31 31 nan 30 30 31 nan nan nan nan 36 36 nan 33 28 nan nan nan nan nan nan nan nan nan nan nan nan nan nan nan nan nan nan nan nan nan nan nan nan nan nan
nan nan nan nan nan nan nan nan nan nan nan nan nan nan nan nan nan nan nan nan nan nan nan nan nan nan nan nan nan 32 31 31 30 30 29 27 26 25 25 26 27 28 29 31 34 nan nan nan nan nan nan nan 31 35 40 nan nan nan nan 31 nan nan nan nan nan nan nan nan nan nan nan nan nan nan nan nan nan nan nan nan nan nan nan nan nan
nan nan nan nan nan nan nan nan nan nan nan nan nan nan nan nan nan nan nan nan nan nan nan nan nan nan nan nan nan nan nan nan nan nan 31 28 26 25 25 27 26 27 27 30 nan nan 36 35 nan nan nan nan nan 35 nan nan nan nan nan 32 nan nan nan nan nan nan nan nan nan nan nan nan nan nan nan nan nan nan nan nan nan nan nan nan nan
nan nan nan nan nan nan nan nan nan nan nan nan nan nan nan nan nan nan nan nan nan nan nan nan nan nan nan nan nan nan nan nan nan nan 31 nan nan 25 23 22 24 25 26 28 32 37 38 37 36 nan nan nan nan nan nan nan nan nan nan nan nan nan nan nan nan nan nan nan nan nan nan nan nan nan nan nan nan nan nan nan nan nan nan nan nan
nan nan nan nan nan nan nan nan nan nan nan nan nan nan nan nan nan nan nan nan nan nan nan nan nan nan nan nan nan nan nan nan nan nan nan nan nan nan nan 21 21 22 22 24 30 35 38 38 36 nan nan nan nan nan nan nan nan nan nan nan nan nan nan nan nan nan nan nan nan nan nan nan nan nan nan nan nan nan nan nan nan nan nan nan nan
nan nan nan nan nan nan nan nan nan nan nan nan nan nan nan nan nan nan nan nan nan nan nan nan nan nan nan nan nan nan nan nan nan nan nan nan nan nan nan nan nan nan 23 22 24 30 37 36 36 36 nan 33 33 nan nan nan nan nan nan nan nan nan nan nan nan nan nan nan nan nan nan nan nan nan nan nan nan nan nan nan nan nan nan nan nan
nan nan nan nan nan nan nan nan nan nan nan nan nan nan nan nan nan nan nan nan nan nan nan nan nan nan nan nan nan nan nan nan nan nan nan nan nan nan nan nan nan 24 25 25 25 26 32 35 36 35 34 nan nan nan 35 nan 41 nan nan nan nan nan nan nan nan nan nan nan nan nan nan nan nan nan nan nan nan nan nan nan nan nan nan nan nan
nan nan nan nan nan nan nan nan nan nan nan nan nan nan nan nan nan nan nan nan nan nan nan nan nan nan nan nan nan nan nan nan nan nan nan nan nan nan nan nan nan 25 26 30 32 33 34 37 37 35 35 36 34 35 38 39 35 36 nan nan nan nan nan nan nan nan nan nan nan nan nan nan nan nan nan nan nan nan nan nan nan nan nan nan nan
nan nan nan nan nan nan nan nan nan nan nan nan nan nan nan nan nan nan nan nan nan nan nan nan nan nan nan nan nan nan nan nan nan nan nan nan nan nan nan nan nan nan nan nan nan 30 34 37 36 35 38 39 36 37 40 nan nan nan 46 52 nan nan 47 nan nan nan nan nan nan nan nan nan nan nan nan nan nan nan nan nan nan nan nan nan nan
nan nan nan nan nan nan nan nan nan nan nan nan nan nan nan nan nan nan nan nan nan nan nan nan nan nan nan nan nan nan nan nan nan nan nan nan nan nan nan nan nan nan nan nan nan nan 35 36 36 38 43 42 37 38 38 36 37 nan nan nan nan nan nan nan nan nan nan nan nan nan nan nan nan nan nan nan nan nan nan nan nan nan nan nan nan
nan nan nan nan nan nan nan nan nan nan nan nan nan nan nan nan nan nan nan nan nan nan nan nan nan nan nan nan nan nan nan nan nan nan nan nan nan nan nan nan nan nan nan nan 33 35 nan 39 37 35 38 38 37 37 36 35 nan nan nan nan nan nan nan nan nan nan nan nan nan nan nan nan nan nan nan nan nan nan nan nan nan nan nan nan nan
nan nan nan nan nan nan nan nan nan nan nan nan nan nan nan nan nan nan nan nan nan nan nan nan nan nan nan nan nan nan nan nan nan nan nan nan nan nan nan nan nan nan nan nan nan nan nan nan 39 40 41 42 41 42 39 34 38 39 38 nan 44 nan nan nan nan nan nan nan nan nan nan nan nan nan nan nan nan nan nan nan nan nan nan nan nan
Wind_Direction
320 336 320 325 319 291 271 282 289 291 290 283 296 299 nan 289 286 272 259 246 242 239 250 254 259 256 245 244 260 270 276 283 288 292 294 296 297 299 321 314 306 302 302 299 301 nan nan nan nan nan nan nan nan nan nan nan nan nan nan nan nan nan nan nan nan nan nan nan nan nan nan nan nan nan nan nan nan nan nan nan nan nan nan nan nan
324 321 320 326 319 302 269 267 279 285 287 292 291 287 284 nan nan nan 268 261 255 253 255 259 261 269 266 253 251 264 274 281 287 292 293 295 296 293 319 315 307 299 302 302 302 nan nan nan nan nan nan nan nan nan nan nan nan nan nan nan nan nan nan nan nan nan nan nan nan nan nan nan nan nan nan nan nan nan nan nan nan nan nan nan nan
325 318 310 309 307 308 287 250 244 271 284 301 304 305 295 289 287 nan nan 282 275 272 267 266 267 267 274 267 244 254 264 272 277 283 290 293 294 295 302 319 307 300 301 301 300 nan nan nan nan nan nan nan nan nan nan nan nan nan nan nan nan nan nan nan nan nan nan nan nan nan nan nan nan nan nan nan nan nan nan nan nan nan nan nan nan
317 312 306 299 295 290 268 255 250 244 257 283 300 307 321 327 314 308 306 301 294 285 283 281 275 274 274 275 260 255 260 266 271 281 285 287 293 298 299 299 312 305 301 298 301 307 nan nan nan nan nan nan nan nan nan nan nan nan nan nan nan nan nan nan nan nan nan nan nan nan nan nan nan nan nan nan nan nan nan nan nan nan nan nan nan
309 308 304 295 285 272 265 263 265 269 272 279 288 298 308 316 318 311 307 304 nan 303 299 293 286 278 277 279 280 272 272 272 271 268 275 282 290 297 299 298 297 310 306 301 300 303 nan nan nan nan nan nan nan nan nan nan nan nan nan nan nan nan nan nan nan nan nan nan nan nan nan nan nan nan nan nan nan nan nan nan nan nan nan nan nan
298 295 296 286 273 270 268 266 271 280 285 289 291 296 302 300 305 297 301 300 305 309 302 299 299 292 286 282 282 283 279 275 275 272 266 263 nan 268 280 297 303 298 292 303 300 300 305 312 nan 316 nan nan nan nan nan nan nan nan nan nan nan nan nan nan nan nan nan nan nan nan nan nan nan nan nan nan nan nan nan nan nan nan nan nan nan
299 298 293 289 287 286 285 285 281 286 291 293 294 292 291 295 290 290 285 284 284 281 288 296 296 295 291 286 288 nan nan 278 269 nan 271 272 274 266 271 nan 283 292 287 284 294 305 309 316 306 311 nan nan nan nan nan nan nan nan nan nan nan nan nan nan nan nan nan nan nan nan nan nan nan nan nan nan nan nan nan nan nan nan nan nan nan
301 298 298 297 299 299 301 296 295 301 308 308 304 300 296 296 297 299 294 292 286 285 284 282 284 289 291 293 300 293 286 279 278 273 275 274 269 273 278 276 279 280 284 282 280 nan 312 312 307 309 307 nan nan nan nan nan nan nan nan nan nan nan nan nan nan nan nan nan nan nan nan nan nan nan nan nan nan nan nan nan nan nan nan nan nan
298 295 296 298 298 298 297 302 311 323 323 315 307 304 305 307 305 306 305 300 292 292 287 287 284 285 282 284 289 293 295 289 277 278 277 276 274 272 272 nan 277 280 277 278 277 nan 294 313 316 308 305 303 nan nan nan nan nan nan nan nan nan nan nan nan nan nan nan nan nan nan nan nan nan nan nan nan nan nan nan nan nan nan nan nan nan
299 297 295 296 295 295 297 311 324 324 312 303 305 305 311 311 309 304 302 298 295 297 298 294 290 284 282 284 286 294 296 298 302 294 289 286 284 281 270 257 267 281 279 270 269 nan nan 293 311 297 305 301 308 nan 312 308 nan nan nan nan nan nan nan nan nan nan nan nan nan nan nan nan nan nan nan nan nan nan nan nan nan nan nan nan nan
288 292 296 298 298 298 304 322 320 305 297 302 312 314 314 312 312 304 298 300 301 300 304 302 299 292 286 286 288 296 297 304 304 305 297 295 290 286 276 267 263 270 nan 274 nan nan nan nan 275 277 286 303 305 314 312 nan nan nan nan nan nan nan nan nan nan nan nan nan nan nan nan nan nan nan nan nan nan nan nan nan nan nan nan nan nan
286 287 289 296 300 302 312 318 294 285 292 307 311 312 315 318 319 317 311 307 305 302 302 302 302 303 300 297 298 293 296 298 301 302 299 296 290 286 283 271 265 263 266 272 nan nan nan nan nan 272 276 294 306 300 298 297 298 nan nan nan nan nan nan nan nan nan nan nan nan nan nan nan nan nan nan nan nan nan nan nan nan nan nan nan nan
284 285 287 293 299 302 307 300 290 295 300 301 293 293 299 305 304 304 308 309 306 306 304 304 300 295 296 301 300 300 299 301 302 299 297 297 293 292 285 275 270 271 270 268 nan nan nan 264 nan 268 274 277 288 300 291 288 291 nan nan nan nan nan nan nan nan nan nan nan nan nan nan nan nan nan nan nan nan nan nan nan nan nan nan nan nan
287 288 292 296 298 301 300 294 293 296 298 297 297 293 290 293 296 295 298 304 300 301 301 297 295 294 284 284 292 nan nan nan nan 300 298 296 297 301 297 288 281 282 276 268 nan nan nan 266 264 268 271 274 276 nan 273 272 nan 292 318 nan nan nan nan nan nan nan nan nan nan nan nan nan nan nan nan nan nan nan nan nan nan nan nan nan nan
289 289 292 294 296 297 297 297 299 299 300 301 300 300 297 296 295 294 288 293 294 294 299 305 299 292 289 287 nan nan nan nan nan nan 298 300 297 300 300 297 297 293 287 276 266 nan nan 267 264 268 269 270 272 272 269 270 nan nan nan nan nan nan 328 nan 320 nan nan nan nan nan nan nan nan nan nan nan nan nan nan nan nan nan nan nan nan
297 295 293 291 291 295 295 297 301 304 306 305 305 303 300 299 300 301 300 295 297 295 304 306 305 296 293 300 292 294 nan nan nan nan nan nan nan nan 294 297 297 291 284 285 nan nan nan 268 264 265 267 269 269 269 268 264 284 nan nan nan 318 nan 326 nan 323 314 314 nan nan nan nan nan nan nan nan nan nan nan nan nan nan nan nan nan nan
297 295 292 290 290 291 292 296 299 304 306 306 304 302 300 302 304 305 305 305 302 296 299 305 309 309 309 296 294 298 301 290 nan nan nan nan nan 295 294 293 292 291 288 286 278 nan nan 267 260 261 265 267 268 268 266 264 268 271 284 302 284 310 320 313 nan nan 312 nan nan nan nan nan nan nan nan nan nan nan nan nan nan nan nan nan nan
294 295 295 293 292 292 294 295 296 298 301 302 299 296 298 299 302 303 303 303 302 296 296 297 305 308 314 311 310 307 294 284 nan 280 nan nan nan nan 291 291 288 287 288 287 284 274 268 262 256 259 263 264 265 264 264 263 264 265 265 274 nan 311 298 305 nan 319 315 nan nan nan nan nan nan nan nan nan nan nan nan nan nan nan nan nan nan
283 287 289 291 292 291 292 294 295 298 299 299 300 301 300 301 299 300 302 301 301 305 307 301 300 308 310 311 314 311 304 293 294 281 280 nan nan nan nan nan 286 287 287 288 283 nan 267 259 252 255 258 258 261 262 261 nan 271 276 281 280 297 299 nan nan 311 318 314 310 310 305 nan 297 nan nan nan nan nan nan nan nan nan nan nan nan nan
281 282 285 285 286 286 289 294 296 298 298 301 302 302 299 297 298 300 302 303 305 309 309 305 306 304 306 312 315 316 312 311 307 298 287 279 279 nan 279 280 280 282 283 284 283 280 274 262 250 251 254 255 258 258 260 nan nan 267 266 286 289 292 nan nan nan nan 300 304 310 311 nan nan nan nan nan nan nan nan nan nan nan nan nan nan nan
283 282 282 281 284 286 287 289 295 296 298 300 300 299 298 294 292 295 299 301 303 305 307 307 307 308 304 306 308 308 306 308 308 304 297 287 nan 281 279 nan 273 274 275 276 279 281 281 267 250 249 253 255 257 258 259 259 nan nan nan 281 288 287 287 283 nan nan nan 281 302 nan 308 304 nan nan nan nan nan nan nan nan nan nan nan nan nan
282 283 281 280 283 285 285 286 289 291 293 295 295 295 295 293 294 294 297 301 301 304 305 302 303 304 308 306 306 304 nan nan nan 302 300 nan nan nan nan nan nan 274 274 277 281 283 285 268 246 246 257 257 257 257 257 261 260 nan nan 278 281 281 284 283 279 nan nan nan nan nan nan 303 304 302 nan nan nan nan nan nan nan nan nan nan nan
nan 281 281 282 283 284 284 284 285 284 285 283 285 288 289 287 287 288 291 295 296 300 305 306 304 304 308 306 307 309 307 306 304 301 299 295 291 nan nan nan nan 269 nan 281 280 282 287 269 243 244 258 258 257 255 253 259 267 266 272 273 280 279 279 280 277 275 nan 274 nan nan nan 306 307 nan nan nan nan nan nan nan nan nan nan nan nan
276 nan nan 276 279 281 279 278 280 282 nan nan nan nan 279 277 277 281 286 292 297 298 297 297 299 300 305 305 306 306 309 309 305 303 300 298 293 nan nan 270 nan nan nan nan nan 278 288 280 257 252 255 255 255 254 255 259 259 266 262 272 276 278 274 277 277 275 nan 273 274 nan 286 305 305 303 nan nan nan nan nan nan nan nan nan nan nan
nan nan nan nan nan nan nan nan nan nan nan nan nan nan nan nan 275 274 278 283 288 291 292 292 294 297 297 300 304 306 309 308 305 nan 302 297 291 284 nan nan 266 262 257 nan 262 nan 277 281 276 267 256 253 257 256 256 259 259 267 269 258 278 272 271 274 275 273 nan 272 273 nan nan 299 306 301 nan nan nan nan nan nan nan nan nan nan nan
nan nan nan nan nan nan nan nan nan nan nan nan nan nan nan nan nan 277 277 282 286 293 297 298 299 303 301 300 304 307 307 306 307 306 nan nan nan nan nan nan nan 263 258 259 259 264 269 275 277 270 254 249 256 nan nan 255 256 nan 270 256 264 272 270 268 272 272 272 273 271 269 nan nan nan 298 nan nan nan nan nan nan nan nan nan nan nan
nan nan nan nan nan nan nan nan nan nan nan nan nan nan nan nan nan nan 283 287 288 290 290 289 289 288 290 294 296 300 302 304 306 306 303 298 291 285 279 270 265 263 260 258 256 263 263 264 273 271 258 252 257 261 nan 257 255 262 263 254 251 268 268 270 268 270 270 272 271 269 268 nan nan 285 nan nan nan nan nan nan nan nan nan nan nan
nan nan nan nan nan nan nan nan nan nan nan nan nan nan nan nan nan nan nan nan 280 285 289 294 297 299 299 299 301 305 304 304 306 307 306 299 290 284 280 275 270 262 nan nan 258 255 261 260 263 269 262 258 258 257 259 259 255 261 260 248 246 251 266 269 269 269 269 270 273 269 273 nan nan 281 nan nan nan nan nan nan nan nan nan nan nan
nan nan nan nan nan nan nan nan nan nan nan nan nan nan nan nan nan nan nan nan nan nan nan 289 293 297 299 303 302 302 303 305 308 310 308 300 291 284 282 278 273 nan nan nan nan 257 257 262 261 263 264 259 259 255 256 257 255 253 245 248 248 247 259 269 267 267 269 272 271 272 272 nan nan 280 nan nan nan nan nan nan nan nan nan nan nan
nan nan nan nan nan nan nan nan nan nan nan nan nan nan nan nan nan nan nan nan nan nan nan nan 286 290 295 299 303 304 305 306 308 309 306 297 289 284 281 276 272 nan nan nan nan nan nan 259 259 258 260 258 257 255 255 258 257 nan 239 245 247 247 261 269 268 267 270 271 nan nan nan nan nan 279 nan nan nan nan nan nan nan nan nan nan nan
nan nan nan nan nan nan nan nan nan nan nan nan nan nan nan nan nan nan nan nan nan nan nan nan nan nan 289 294 298 301 304 308 311 311 308 297 289 286 280 276 273 271 nan nan nan nan nan nan nan 261 260 256 255 253 250 252 252 nan 235 nan 243 250 262 260 268 268 270 nan nan nan nan nan nan 280 nan nan nan nan nan nan nan nan nan nan nan
nan nan nan nan nan nan nan nan nan nan nan nan nan nan nan nan nan nan nan nan nan nan nan nan nan nan nan 289 295 299 302 306 309 310 307 297 288 278 274 272 272 270 260 254 254 nan nan nan 264 272 266 255 253 254 250 247 244 242 nan nan 241 251 251 246 263 267 269 nan nan nan nan nan nan nan nan nan nan nan nan nan nan nan nan nan nan
nan nan nan nan nan nan nan nan nan nan nan nan nan nan nan nan nan nan nan nan nan nan nan nan nan nan nan nan 288 295 299 305 307 308 305 296 287 281 275 270 269 267 262 255 nan nan nan nan nan 269 268 260 252 253 251 245 236 227 nan nan nan 242 245 244 246 258 nan nan nan nan nan nan nan nan nan nan nan nan nan nan nan nan nan nan nan
nan nan nan nan nan nan nan nan nan nan nan nan nan nan nan nan nan nan nan nan nan nan nan nan nan nan nan nan nan nan 294 301 305 308 305 294 287 283 279 274 270 264 259 253 nan nan nan nan nan 254 261 264 257 252 250 245 234 228 nan nan nan 245 243 244 244 nan 263 nan nan nan nan nan nan nan nan nan nan nan nan nan nan nan nan nan nan
nan nan nan nan nan nan nan nan nan nan nan nan nan nan nan nan nan nan nan nan nan nan nan nan nan nan nan nan nan nan nan nan nan nan 302 293 286 286 284 277 272 265 256 253 248 243 nan nan nan nan 255 256 256 247 236 233 235 238 nan nan nan nan 241 nan nan nan nan 263 271 nan nan nan nan nan nan nan nan nan nan nan nan nan nan nan nan
nan nan nan nan nan nan nan nan nan nan nan nan nan nan nan nan nan nan nan nan nan nan nan nan nan nan nan nan nan nan nan nan nan nan nan 295 287 279 274 269 266 262 255 249 249 245 nan 247 249 nan nan 251 243 237 234 235 238 235 234 nan nan nan nan nan nan nan nan 264 270 nan nan nan nan nan nan nan nan nan nan nan nan nan nan nan nan
nan nan nan nan nan nan nan nan nan nan nan nan nan nan nan nan nan nan nan nan nan nan nan nan nan nan nan nan 270 nan nan nan nan nan nan nan nan nan nan 270 262 256 251 248 244 243 245 247 242 241 nan nan nan 242 244 247 241 237 231 nan nan nan nan nan nan nan nan 265 268 nan nan nan nan nan nan nan nan nan nan nan nan nan nan nan nan
nan nan nan nan nan nan nan nan nan nan nan nan nan nan nan nan nan nan nan nan nan nan nan nan nan nan nan nan nan nan nan nan 288 297 301 299 nan nan nan 271 266 261 253 242 239 242 244 243 nan 240 241 nan nan nan nan 249 248 241 233 228 nan nan nan nan nan nan nan 246 nan nan nan nan nan nan nan nan nan nan nan nan nan nan nan nan nan
nan nan nan nan nan nan nan nan nan nan nan nan nan nan nan nan nan nan nan nan nan nan nan nan nan nan nan nan nan nan nan 264 261 265 nan 289 290 283 nan 271 268 264 258 249 241 242 245 243 243 nan nan nan nan nan nan 245 247 246 244 238 nan nan nan nan nan nan nan nan nan nan nan nan nan nan nan nan nan nan nan nan nan nan nan nan nan
nan nan nan nan nan nan nan nan nan nan nan nan nan nan nan nan nan nan nan nan nan nan nan nan nan nan nan nan nan 270 267 265 263 262 261 258 260 nan 275 272 267 264 258 249 244 243 nan 240 242 243 nan nan nan nan 239 240 nan 238 240 nan nan nan nan nan nan nan nan nan nan nan nan nan nan nan nan nan nan nan nan nan nan nan nan nan nan
nan nan nan nan nan nan nan nan nan nan nan nan nan nan nan nan nan nan nan nan nan nan nan nan nan nan nan nan nan 264 256 247 245 249 249 253 261 256 254 262 264 261 256 247 242 nan nan nan nan nan nan nan 242 242 239 nan nan nan nan 239 nan nan nan nan nan nan nan nan nan nan nan nan nan nan nan nan nan nan nan nan nan nan nan nan nan
nan nan nan nan nan nan nan nan nan nan nan nan nan nan nan nan nan nan nan nan nan nan nan nan nan nan nan nan nan nan nan nan nan nan 242 239 239 256 260 249 244 252 257 251 nan nan 244 241 nan nan nan nan nan 243 nan nan nan nan nan 236 nan nan nan nan nan nan nan nan nan nan nan nan nan nan nan nan nan nan nan nan nan nan nan nan nan
nan nan nan nan nan nan nan nan nan nan nan nan nan nan nan nan nan nan nan nan nan nan nan nan nan nan nan nan nan nan nan nan nan nan 240 nan nan 239 234 238 247 240 241 251 248 245 244 242 239 nan nan nan nan nan nan nan nan nan nan nan nan nan nan nan nan nan nan nan nan nan nan nan nan nan nan nan nan nan nan nan nan nan nan nan nan
nan nan nan nan nan nan nan nan nan nan nan nan nan nan nan nan nan nan nan nan nan nan nan nan nan nan nan nan nan nan nan nan nan nan nan nan nan nan nan 231 230 242 244 242 247 246 245 243 240 nan nan nan nan nan nan nan nan nan nan nan nan nan nan nan nan nan nan nan nan nan nan nan nan nan nan nan nan nan nan nan nan nan nan nan nan
nan nan nan nan nan nan nan nan nan nan nan nan nan nan nan nan nan nan nan nan nan nan nan nan nan nan nan nan nan nan nan nan nan nan nan nan nan nan nan nan nan nan 251 244 240 245 247 244 242 241 nan 239 237 nan nan nan nan nan nan nan nan nan nan nan nan nan nan nan nan nan nan nan nan nan nan nan nan nan nan nan nan nan nan nan nan
nan nan nan nan nan nan nan nan nan nan nan nan nan nan nan nan nan nan nan nan nan nan nan nan nan nan nan nan nan nan nan nan nan nan nan nan nan nan nan nan nan 239 248 256 251 243 241 244 244 241 240 nan nan nan 235 nan 244 nan nan nan nan nan nan nan nan nan nan nan nan nan nan nan nan nan nan nan nan nan nan nan nan nan nan nan nan
nan nan nan nan nan nan nan nan nan nan nan nan nan nan nan nan nan nan nan nan nan nan nan nan nan nan nan nan nan nan nan nan nan nan nan nan nan nan nan nan nan 243 247 251 253 250 247 244 241 239 236 237 233 230 232 237 243 243 nan nan nan nan nan nan nan nan nan nan nan nan nan nan nan nan nan nan nan nan nan nan nan nan nan nan nan
nan nan nan nan nan nan nan nan nan nan nan nan nan nan nan nan nan nan nan nan nan nan nan nan nan nan nan nan nan nan nan nan nan nan nan nan nan nan nan nan nan nan nan nan nan 249 244 242 242 237 233 236 236 232 233 nan nan nan 230 227 nan nan 239 nan nan nan nan nan nan nan nan nan nan nan nan nan nan nan nan nan nan nan nan nan nan
nan nan nan nan nan nan nan nan nan nan nan nan nan nan nan nan nan nan nan nan nan nan nan nan nan nan nan nan nan nan nan nan nan nan nan nan nan nan nan nan nan nan nan nan nan nan 238 234 229 227 226 226 231 237 237 238 238 nan nan nan nan nan nan nan nan nan nan nan nan nan nan nan nan nan nan nan nan nan nan nan nan nan nan nan nan
nan nan nan nan nan nan nan nan nan nan nan nan nan nan nan nan nan nan nan nan nan nan nan nan nan nan nan nan nan nan nan nan nan nan nan nan nan nan nan nan nan nan nan nan 248 246 nan 238 235 231 227 226 227 232 238 240 nan nan nan nan nan nan nan nan nan nan nan nan nan nan nan nan nan nan nan nan nan nan nan nan nan nan nan nan nan
nan nan nan nan nan nan nan nan nan nan nan nan nan nan nan nan nan nan nan nan nan nan nan nan nan nan nan nan nan nan nan nan nan nan nan nan nan nan nan nan nan nan nan nan nan nan nan nan 239 238 235 231 228 231 232 235 246 245 241 nan 241 nan nan nan nan nan nan nan nan nan nan nan nan nan nan nan nan nan nan nan nan nan nan nan nan